Weather History for DeKalb, IL

Change the Weather History Date:

Tuesday, June 18, 2013

  Actual Average (KARR) Record (KARR)
Temperature  
Mean Temperature 64 °F 70 °F  
Max Temperature 73 °F 81 °F 92 °F (2012)
Min Temperature 55 °F 59 °F 44 °F (1999)
Degree Days  
Heating Degree Days 0 1  
Month to date heating degree days 35  
Since 1 June heating degree days 35  
Since 1 July heating degree days 6769  
Cooling Degree Days 0 6  
Month to date cooling degree days 76  
Year to date cooling degree days 117  
Since 1 June cooling degree days 76  
Growing Degree Days 14 (Base 50)    
Moisture  
Dew Point 55 °F    
Average Humidity 71    
Maximum Humidity 86    
Minimum Humidity 52    
Precipitation  
Precipitation 0.00 in 0.12 in 1.26 in (2014)
Month to date precipitation 2.84  
Year to date precipitation 15.72  
Sea Level Pressure  
Sea Level Pressure 30.02 in    
Wind  
Wind Speed 10 mph (NE)    
Max Wind Speed 16 mph    
Max Gust Speed 22 mph    
Visibility 10 miles    
Events      
T = Trace of Precipitation, MM = Missing Value Source: NWS Daily Summary

Daily Weather History Graph

Daily Weather History Graph

Search for Another Location

Airport:

Trip Planner

Search our weather history database for the weather conditions in past years. The results will help you decide how hot, cold, wet, or windy it might be!

Date:

Astronomy

Jun. 18, 2013 Rise Set
Actual Time 5:19 AM CDT 8:33 PM CDT
Civil Twilight 4:44 AM CDT 9:07 PM CDT
Nautical Twilight 4:00 AM CDT 9:51 PM CDT
Astronomical Twilight 3:06 AM CDT 10:45 PM CDT
Moon 3:13 PM CDT (6/18) 1:31 AM CDT (6/18)
Length of Visible Light 16h 22m
Length of Day
15h 13m
Waxing Gibbous, 71% of the Moon is Illuminated
Jun 18
Waxing Gibbous
Jun 23
Full
Jun 29
Last Quarter
Jul 8
New
Jul 15
First Quarter

Hourly Weather History & Observations

Time (CDT) Temp. Dew Point Humidity Pressure Visibility Wind Dir Wind Speed Gust Speed Precip Events Conditions
12:15 AM 63.0 °F 56.1 °F 78% 29.93 in 10.0 mi NE 9.2 mph - N/A   Mostly Cloudy
12:35 AM 62.4 °F 56.3 °F 80% 29.94 in 10.0 mi NE 10.4 mph - N/A   Mostly Cloudy
12:55 AM 62.8 °F 56.8 °F 81% 29.94 in 10.0 mi NE 9.2 mph - N/A   Mostly Cloudy
1:15 AM 62.2 °F 56.1 °F 80% 29.94 in 10.0 mi NNE 8.1 mph - N/A   Scattered Clouds
1:35 AM 62.8 °F 56.3 °F 79% 29.94 in 10.0 mi NNE 11.5 mph - N/A   Scattered Clouds
1:55 AM 61.9 °F 55.8 °F 80% 29.94 in 10.0 mi NNE 9.2 mph - N/A   Scattered Clouds
2:35 AM 60.4 °F 54.3 °F 80% 29.94 in 10.0 mi NNE 11.5 mph - N/A   Clear
2:55 AM 60.1 °F 53.8 °F 80% 29.95 in 10.0 mi NNE 9.2 mph - N/A   Scattered Clouds
3:15 AM 59.2 °F 53.1 °F 80% 29.95 in 10.0 mi NE 9.2 mph - N/A   Clear
3:35 AM 58.1 °F 52.9 °F 83% 29.95 in 10.0 mi NNE 8.1 mph - N/A   Clear
3:55 AM 58.1 °F 52.7 °F 82% 29.94 in 10.0 mi NNE 8.1 mph - N/A   Clear
4:15 AM 58.1 °F 52.7 °F 82% 29.95 in 10.0 mi NNE 8.1 mph - N/A   Scattered Clouds
4:35 AM 58.1 °F 52.7 °F 82% 29.96 in 10.0 mi NNE 8.1 mph - N/A   Mostly Cloudy
4:55 AM 58.1 °F 53.1 °F 83% 29.97 in 10.0 mi NNE 6.9 mph - N/A   Mostly Cloudy
5:15 AM 57.2 °F 52.9 °F 85% 29.98 in 10.0 mi NNE 6.9 mph - N/A   Scattered Clouds
5:35 AM 58.1 °F 53.6 °F 85% 29.98 in 10.0 mi NNE 5.8 mph - N/A   Mostly Cloudy
5:55 AM 58.1 °F 53.6 °F 85% 29.99 in 10.0 mi NNE 6.9 mph - N/A   Overcast
6:35 AM 58.1 °F 53.8 °F 86% 30.01 in 10.0 mi NNE 6.9 mph - N/A   Scattered Clouds
6:55 AM 58.6 °F 54.5 °F 86% 30.02 in 10.0 mi NNE 8.1 mph - N/A   Scattered Clouds
7:15 AM 59.2 °F 54.9 °F 86% 30.02 in 10.0 mi NNE 10.4 mph - N/A   Scattered Clouds
7:35 AM 59.2 °F 55.0 °F 86% 30.03 in 10.0 mi NE 9.2 mph - N/A   Scattered Clouds
7:55 AM 59.9 °F 55.6 °F 86% 30.03 in 10.0 mi NE 13.8 mph - N/A   Mostly Cloudy
8:15 AM 61.2 °F 56.5 °F 85% 30.03 in 10.0 mi NE 12.7 mph - N/A   Scattered Clouds
8:35 AM 63.0 °F 57.6 °F 82% 30.03 in 10.0 mi NE 13.8 mph - N/A   Mostly Cloudy
8:55 AM 61.9 °F 56.5 °F 82% 30.04 in 10.0 mi NE 13.8 mph - N/A   Scattered Clouds
9:15 AM 62.8 °F 57.4 °F 82% 30.03 in 10.0 mi NE 13.8 mph - N/A   Scattered Clouds
9:35 AM 64.6 °F 57.9 °F 79% 30.03 in 10.0 mi NE 15.0 mph - N/A   Scattered Clouds
9:55 AM 65.3 °F 58.1 °F 77% 30.02 in 10.0 mi NE 13.8 mph - N/A   Clear
10:15 AM 66.4 °F 58.5 °F 76% 30.02 in 10.0 mi NNE 13.8 mph 18.4 mph N/A   Clear
10:35 AM 67.8 °F 59.2 °F 74% 30.02 in 10.0 mi NE 13.8 mph 18.4 mph N/A   Clear
10:55 AM 68.5 °F 59.5 °F 73% 30.04 in 10.0 mi NE 13.8 mph - N/A   Clear
11:15 AM 69.3 °F 59.2 °F 70% 30.04 in 10.0 mi NE 16.1 mph 19.6 mph N/A   Clear
11:35 AM 70.7 °F 59.9 °F 69% 30.03 in 10.0 mi ENE 13.8 mph - N/A   Clear
11:55 AM 70.7 °F 59.9 °F 69% 30.03 in 10.0 mi NE 13.8 mph 21.9 mph N/A   Scattered Clouds
12:15 PM 71.6 °F 61.2 °F 70% 30.03 in 10.0 mi ENE 10.4 mph 17.3 mph N/A   Scattered Clouds
12:35 PM 72.1 °F 61.0 °F 68% 30.03 in 10.0 mi ENE 13.8 mph 18.4 mph N/A   Clear
12:55 PM 72.7 °F 59.5 °F 63% 30.04 in 10.0 mi NNE 12.7 mph - N/A   Clear
1:15 PM 73.4 °F 59.9 °F 63% 30.04 in 10.0 mi NNE 11.5 mph 17.3 mph N/A   Clear
1:35 PM 73.4 °F 59.2 °F 61% 30.04 in 10.0 mi NE 12.7 mph 17.3 mph N/A   Clear
2:15 PM 73.9 °F 58.6 °F 59% 30.04 in 10.0 mi ENE 12.7 mph - N/A   Scattered Clouds
2:35 PM 73.0 °F 57.6 °F 58% 30.04 in 10.0 mi NE 12.7 mph - N/A   Clear
2:55 PM 73.8 °F 57.6 °F 57% 30.04 in 10.0 mi NE 12.7 mph 18.4 mph N/A   Clear
3:15 PM 73.9 °F 57.9 °F 57% 30.04 in 10.0 mi NE 12.7 mph 18.4 mph N/A   Clear
3:35 PM 73.6 °F 57.0 °F 56% 30.04 in 10.0 mi NE 9.2 mph 18.4 mph N/A   Clear
3:55 PM 73.8 °F 57.2 °F 56% 30.04 in 10.0 mi ENE 11.5 mph - N/A   Clear
4:15 PM 73.4 °F 56.1 °F 55% 30.04 in 10.0 mi NE 10.4 mph 20.7 mph N/A   Clear
4:35 PM 73.4 °F 55.2 °F 53% 30.04 in 10.0 mi NE 11.5 mph - N/A   Clear
4:55 PM 73.4 °F 55.6 °F 54% 30.04 in 10.0 mi NE 11.5 mph - N/A   Clear
5:15 PM 73.4 °F 55.0 °F 52% 30.04 in 10.0 mi NNE 13.8 mph - N/A   Clear
5:35 PM 72.9 °F 55.2 °F 54% 30.04 in 10.0 mi NE 12.7 mph - N/A   Clear
5:55 PM 72.3 °F 55.0 °F 54% 30.04 in 10.0 mi NE 12.7 mph 18.4 mph N/A   Clear
6:15 PM 72.1 °F 53.8 °F 52% 30.04 in 10.0 mi NNE 12.7 mph 17.3 mph N/A   Clear
6:35 PM 71.6 °F 54.0 °F 54% 30.04 in 10.0 mi NNE 12.7 mph - N/A   Clear
6:55 PM 70.3 °F 52.5 °F 53% 30.04 in 10.0 mi NNE 13.8 mph - N/A   Clear
7:15 PM 69.3 °F 51.3 °F 53% 30.05 in 10.0 mi NE 13.8 mph - N/A   Clear
7:35 PM 68.2 °F 50.7 °F 54% 30.05 in 10.0 mi NE 12.7 mph - N/A   Clear
7:55 PM 67.3 °F 51.6 °F 57% 30.05 in 10.0 mi NE 11.5 mph - N/A   Clear
8:15 PM 66.2 °F 52.2 °F 61% 30.05 in 10.0 mi NE 12.7 mph - N/A   Clear
8:35 PM 64.4 °F 52.0 °F 64% 30.06 in 10.0 mi ENE 9.2 mph - N/A   Clear
8:55 PM 63.0 °F 50.7 °F 64% 30.07 in 10.0 mi ENE 9.2 mph - N/A   Clear
9:15 PM 61.3 °F 50.5 °F 68% 30.07 in 10.0 mi ENE 6.9 mph - N/A   Clear
9:35 PM 59.2 °F 50.9 °F 74% 30.08 in 10.0 mi NE 5.8 mph - N/A   Clear
9:55 PM 59.4 °F 49.8 °F 71% 30.09 in 10.0 mi NE 10.4 mph - N/A   Clear
10:15 PM 58.8 °F 47.7 °F 66% 30.09 in 10.0 mi NE 8.1 mph - N/A   Clear
10:35 PM 58.1 °F 48.6 °F 71% 30.09 in 10.0 mi NNE 4.6 mph - N/A   Clear
11:15 PM 56.7 °F 48.2 °F 73% 30.08 in 10.0 mi NNE 6.9 mph - N/A   Clear
11:55 PM 55.8 °F 47.5 °F 74% 30.09 in 10.0 mi North 4.6 mph - N/A   Clear